| time (UTC) | temp C | wind direction | speed KPH | gust KPH | rain 1hr cm | rain 24hr cm | rain mn cm | humidity % | barometer mb |
| 20260905100017 | 21 | 0.0 | 0.0 | 0.00 | 2.24 | 0.00 | 95 | 1011.2 | |
| 20260905094517 | 21 | 0.0 | 0.0 | 0.00 | 2.24 | 0.00 | 95 | 1010.9 | |
| 20260905093016 | 21 | 0.0 | 0.0 | 0.00 | 2.24 | 0.00 | 95 | 1011.1 | |
| 20260905091516 | 21 | 0.0 | 0.0 | 0.00 | 2.24 | 0.00 | 95 | 1011.0 | |
| 20260905090017 | 21 | 0.0 | 0.0 | 0.00 | 2.24 | 0.00 | 95 | 1010.8 | |
| 20260905084516 | 21 | 0.0 | 0.0 | 0.00 | 2.24 | 0.00 | 95 | 1011.0 | |
| 20260905083016 | 21 | 0.0 | 0.0 | 0.00 | 2.24 | 0.00 | 95 | 1010.9 | |
| 20260905081536 | 21 | 0.0 | 0.0 | 0.00 | 2.24 | 0.00 | 95 | 1011.2 | |
| 20260905080016 | 21 | 0.0 | 0.0 | 0.00 | 2.24 | 0.00 | 95 | 1011.3 | |
| 20260905074536 | 21 | 0.0 | 0.0 | 0.00 | 2.24 | 0.00 | 95 | 1011.4 | |
| 20260905073016 | 21 | 0.0 | 0.0 | 0.00 | 2.24 | 0.00 | 95 | 1011.6 | |
| 20260905071516 | 21 | 0.0 | 1.6 | 0.00 | 2.24 | 0.00 | 95 | 1011.8 | |
| 20260905070016 | 21 | 0.0 | 3.2 | 0.00 | 2.24 | 0.00 | 95 | 1011.7 | |
| 20260905064516 | 21 | 0.0 | 1.6 | 0.00 | 2.24 | 0.00 | 95 | 1011.7 | |
| 20260905063016 | 21 | 0.0 | 1.6 | 0.00 | 2.24 | 0.00 | 95 | 1012.0 | |
| 20260905061516 | 21 | 0.0 | 3.2 | 0.00 | 2.24 | 0.00 | 95 | 1012.1 | |
| 20260905060016 | 21 | 0.0 | 3.2 | 0.00 | 2.24 | 0.00 | 95 | 1012.3 | |
| 20260905054516 | 21 | 0.0 | 1.6 | 0.00 | 2.24 | 0.00 | 95 | 1012.8 | |
| 20260905053016 | 21 | 0.0 | 3.2 | 0.00 | 2.24 | 0.00 | 95 | 1012.9 | |
| 20260905051516 | 21 | 0.0 | 0.0 | 0.00 | 2.24 | 0.00 | 95 | 1013.1 | |
| 20260905050016 | 21 | 0.0 | 0.0 | 0.00 | 2.24 | 0.00 | 95 | 1013.5 | |
| 20260905044516 | 21 | 0.0 | 0.0 | 0.00 | 2.24 | 0.00 | 95 | 1013.7 | |
| 20260905043016 | 22 | 0.0 | 0.0 | 0.00 | 2.24 | 0.00 | 95 | 1013.8 | |
| 20260905041516 | 22 | 0.0 | 0.0 | 0.00 | 2.24 | 0.00 | 95 | 1013.9 | |
| 20260905040016 | 22 | 0.0 | 0.0 | 0.00 | 2.24 | 2.24 | 95 | 1013.9 | |
| 20260905034516 | 22 | 0.0 | 0.0 | 0.00 | 2.24 | 2.24 | 95 | 1014.0 | |
| 20260905033017 | 22 | 0.0 | 0.0 | 0.00 | 2.24 | 2.24 | 95 | 1013.9 | |
| 20260905031516 | 22 | 0.0 | 0.0 | 0.00 | 2.24 | 2.24 | 95 | 1013.8 | |
| 20260905030017 | 21 | 0.0 | 0.0 | 0.00 | 2.24 | 2.24 | 95 | 1013.7 | |
| 20260905024517 | 22 | 0.0 | 0.0 | 0.00 | 2.24 | 2.24 | 95 | 1013.8 | |
| 20260905023016 | 22 | 0.0 | 0.0 | 0.00 | 2.24 | 2.24 | 94 | 1014.0 | |
| 20260905021516 | 22 | 0.0 | 0.0 | 0.00 | 2.24 | 2.24 | 94 | 1014.0 | |
| 20260905020016 | 22 | 0.0 | 0.0 | 0.00 | 2.24 | 2.24 | 94 | 1013.9 | |
| 20260905014516 | 22 | 0.0 | 0.0 | 0.00 | 2.24 | 2.24 | 94 | 1013.8 | |
| 20260905013016 | 22 | 0.0 | 0.0 | 0.00 | 2.24 | 2.24 | 94 | 1013.5 | |
| 20260905011516 | 22 | 0.0 | 0.0 | 0.00 | 2.24 | 2.24 | 94 | 1012.9 | |
| 20260905010016 | 22 | 0.0 | 0.0 | 0.00 | 2.24 | 2.24 | 94 | 1012.6 | |
| 20260905004516 | 22 | 0.0 | 0.0 | 0.00 | 2.24 | 2.24 | 94 | 1012.9 | |
| 20260905003016 | 22 | 0.0 | 3.2 | 0.00 | 2.24 | 2.24 | 94 | 1012.5 | |
| 20260905001516 | 22 | 0.0 | 1.6 | 0.03 | 2.24 | 2.24 | 93 | 1012.7 | |
| 20260905000036 | 22 | 0.0 | 1.6 | 0.03 | 2.24 | 2.24 | 93 | 1012.5 | |
| 20260904234516 | 22 | 0.0 | 1.6 | 0.03 | 2.24 | 2.24 | 93 | 1012.6 | |
| 20260904233016 | 22 | 248 | 1.6 | 6.4 | 0.03 | 2.24 | 2.24 | 93 | 1012.4 |
| 20260904231536 | 22 | 0.0 | 3.2 | 0.00 | 2.21 | 2.21 | 93 | 1012.6 | |
| 20260904230036 | 22 | 0.0 | 3.2 | 0.00 | 2.21 | 2.21 | 92 | 1013.2 | |
| 20260904224516 | 22 | 0.0 | 1.6 | 0.05 | 2.21 | 2.21 | 92 | 1013.6 | |
| 20260904223016 | 22 | 0.0 | 4.8 | 0.18 | 2.21 | 2.21 | 91 | 1014.0 | |
| 20260904221516 | 23 | 315 | 3.2 | 11.3 | 1.83 | 2.21 | 2.21 | 89 | 1014.5 |
| 20260904220036 | 23 | 0.0 | 4.8 | 2.21 | 2.21 | 2.21 | 87 | 1013.9 | |
| 20260904214556 | 24 | 0 | 3.2 | 12.9 | 2.16 | 2.16 | 2.16 | 84 | 1013.1 |
| 20260904213016 | 26 | 293 | 8.0 | 41.8 | 2.03 | 2.03 | 2.03 | 79 | 1014.5 |
| 20260904211516 | 31 | 180 | 4.8 | 30.6 | 0.38 | 0.38 | 0.38 | 66 | 1014.3 |
| 20260904210016 | 33 | 0.0 | 3.2 | 0.00 | 0.00 | 0.00 | 63 | 1012.1 | |
| 20260904204516 | 33 | 0.0 | 3.2 | 0.00 | 0.00 | 0.00 | 64 | 1011.8 | |
| 20260904203036 | 33 | 0.0 | 3.2 | 0.00 | 0.00 | 0.00 | 62 | 1011.7 | |
| 20260904201516 | 33 | 180 | 1.6 | 4.8 | 0.00 | 0.00 | 0.00 | 62 | 1011.7 |
| 20260904200016 | 33 | 0.0 | 3.2 | 0.00 | 0.00 | 0.00 | 62 | 1011.9 | |
| 20260904194516 | 33 | 0.0 | 1.6 | 0.00 | 0.00 | 0.00 | 64 | 1012.4 | |
| 20260904193016 | 33 | 0.0 | 1.6 | 0.00 | 0.00 | 0.00 | 65 | 1012.8 | |
| 20260904191516 | 33 | 293 | 1.6 | 4.8 | 0.00 | 0.00 | 0.00 | 65 | 1012.8 |
| 20260904190015 | 33 | 45 | 1.6 | 9.7 | 0.00 | 0.00 | 0.00 | 61 | 1013.0 |
| 20260904184516 | 33 | 270 | 1.6 | 4.8 | 0.00 | 0.00 | 0.00 | 63 | 1013.3 |
| 20260904183016 | 33 | 180 | 1.6 | 3.2 | 0.00 | 0.00 | 0.00 | 62 | 1013.6 |
| 20260904181515 | 33 | 315 | 1.6 | 6.4 | 0.00 | 0.00 | 0.00 | 61 | 1013.8 |
| 20260904180016 | 32 | 45 | 1.6 | 6.4 | 0.00 | 0.00 | 0.00 | 62 | 1014.0 |
| 20260904174515 | 32 | 293 | 1.6 | 6.4 | 0.00 | 0.00 | 0.00 | 63 | 1014.2 |
| 20260904173015 | 32 | 315 | 1.6 | 3.2 | 0.00 | 0.00 | 0.00 | 64 | 1014.3 |
| 20260904171515 | 32 | 293 | 1.6 | 9.7 | 0.00 | 0.00 | 0.00 | 63 | 1014.3 |
| 20260904170056 | 32 | 293 | 1.6 | 9.7 | 0.00 | 0.00 | 0.00 | 62 | 1014.3 |
| 20260904164515 | 33 | 225 | 1.6 | 4.8 | 0.00 | 0.00 | 0.00 | 62 | 1014.4 |
| 20260904163015 | 33 | 248 | 1.6 | 6.4 | 0.00 | 0.00 | 0.00 | 62 | 1014.5 |
| 20260904161515 | 33 | 293 | 1.6 | 4.8 | 0.00 | 0.00 | 0.00 | 63 | 1014.6 |
| 20260904160015 | 33 | 338 | 1.6 | 9.7 | 0.00 | 0.00 | 0.00 | 65 | 1014.8 |
| 20260904154515 | 33 | 0.0 | 6.4 | 0.00 | 0.00 | 0.00 | 65 | 1015.0 | |
| 20260904153035 | 32 | 248 | 1.6 | 12.9 | 0.00 | 0.00 | 0.00 | 67 | 1015.0 |
| 20260904151515 | 32 | 293 | 1.6 | 6.4 | 0.00 | 0.00 | 0.00 | 71 | 1014.9 |
| 20260904150017 | 30 | 293 | 1.6 | 4.8 | 0.00 | 0.00 | 0.00 | 76 | 1014.9 |
| 20260904144517 | 29 | 23 | 1.6 | 4.8 | 0.00 | 0.00 | 0.00 | 79 | 1014.8 |
| 20260904143017 | 28 | 338 | 1.6 | 6.4 | 0.00 | 0.00 | 0.00 | 82 | 1014.6 |
| 20260904141537 | 27 | 338 | 1.6 | 8.0 | 0.00 | 0.00 | 0.00 | 85 | 1014.6 |
| 20260904140017 | 27 | 0 | 1.6 | 8.0 | 0.00 | 0.00 | 0.00 | 86 | 1014.6 |
| 20260904134517 | 26 | 315 | 1.6 | 8.0 | 0.00 | 0.00 | 0.00 | 87 | 1014.5 |
| 20260904133017 | 26 | 0.0 | 4.8 | 0.00 | 0.00 | 0.00 | 89 | 1014.4 | |
| 20260904131517 | 25 | 248 | 1.6 | 3.2 | 0.00 | 0.00 | 0.00 | 91 | 1014.5 |
| 20260904130017 | 24 | 0.0 | 3.2 | 0.00 | 0.00 | 0.00 | 94 | 1014.4 | |
| 20260904124537 | 23 | 0.0 | 1.6 | 0.00 | 0.00 | 0.00 | 94 | 1014.5 | |
| 20260904123017 | 23 | 0.0 | 1.6 | 0.00 | 0.00 | 0.00 | 94 | 1014.4 | |
| 20260904121517 | 23 | 0.0 | 1.6 | 0.00 | 0.00 | 0.00 | 93 | 1014.5 | |
| 20260904120016 | 22 | 0.0 | 1.6 | 0.00 | 0.00 | 0.00 | 93 | 1014.6 | |
| 20260904114517 | 22 | 0.0 | 0.0 | 0.00 | 0.00 | 0.00 | 92 | 1014.3 | |
| 20260904113017 | 22 | 0.0 | 0.0 | 0.00 | 0.00 | 0.00 | 91 | 1014.3 | |
| 20260904111537 | 22 | 0.0 | 0.0 | 0.00 | 0.00 | 0.00 | 91 | 1014.4 | |
| 20260904110017 | 22 | 0.0 | 1.6 | 0.00 | 0.00 | 0.00 | 91 | 1014.4 | |
| 20260904104517 | 22 | 0.0 | 0.0 | 0.00 | 0.00 | 0.00 | 89 | 1014.2 | |
| 20260904103017 | 22 | 0.0 | 1.6 | 0.00 | 0.00 | 0.00 | 90 | 1014.2 | |
| 20260904101516 | 23 | 0.0 | 0.0 | 0.00 | 0.00 | 0.00 | 89 | 1014.3 |